NOAA 16 DEB, 42374

Orbit data source: Space-Track

NOAA 16 DEB, 42374 is space debris in SSO originally from a launch on Thu, 21 Sep 2000 UTC launched from the Air Force Western Test Range (AFWTR). Debris objects in space refer to the collection of defunct objects orbiting the Earth. Examples of debris include non-operational satellites, rocket bodies, and fragments generated from explosions, collisions, or faulty payload assembly.

Loading next visibility...
Identifier
42374, 2000-055RS
Orbit
SSO
Country
Flag of USUS
Related business
Manufacturer
Unknown
Mission
Spacecraft
Bus & Motor
Unknown
Mass
Unknown
Launch date (UTC)
2000-09-21 (26 years ago)
Launch vehicle
Unknown
Launch site
Air Force Western Test Range (AFWTR)
Object type
Payload
Rocket body
Debris
Shape & HBR
Unknown shape, 0.1 m
Radar Cross Section
Medium (>0.1 m² and <1 m²)

Expand to show TLE details & history
Last TLE update: 3 days ago

TLE from 3 days ago
0 NOAA 16 DEB
1 42374U 00055RS  26170.37145415  .00033399  00000-0  42375-2 0  9996
2 42374  98.8407 323.1168 0004818  35.9079 324.2454 14.81598139529094
Epoch: 2026-06-19T08:54Z
TLE epoch observation values (Epoch: 2026-06-19T08:54:53.638Z)
Latitude
-0.00002°
Longitude
-78.20808°
Altitude
624.54 km
Speed
7.548 km/s
True Right ascension
21h 32m 28s
True Declination
0° 00' 00"
Sunlit
Object was in full shadow at epoch
Visualization orbit readout
Latitude
Unknown
Longitude
Unknown
Altitude
Unknown
Speed
Unknown
Apparent Right ascension
Unknown
Apparent Declination
Unknown
Sunlit
N/A
Visualization observer readout
Local Sidereal Time
21:38:47
Azimuth
Unknown
Elevation
Unknown
Doppler factor
Unknown
Orbital elements
Apogee altitude
624.74 km
Perigee altitude
617.995 km
Semi-major axis
6,999.504 km
Eccentricity
0.00048
Inclination
98.8407°
RAAN
323.1168°
Arg. of periapsis
35.9079°
True anomaly
324.21312°
Mean anomaly
324.2454°
Eccentric anomaly
324.22926°
Mean motion
3.70631 °/min
Orbital period
97.13 mins
BSTAR
0.0042375
Loading maneuver chart data...
Computing Atmospheric mass density...
Loading historical data...
Loading historical data...
Loading historical data...
Loading historical data...
Loading historical data...
Loading historical data...
Loading historical data...

Documentation

Showing up to 5 results
|